AVA8427 SKRG-SKBO

Flight info

Callsign AVA8427
Flight time 0h 26m
Altitude 19000
Route ISVAT2B ISVAT ISVAT5E
Aircraft A320/M-SDE3FGHIRWY/LB1

Departure

Time 2026-05-07 16:05
Airport Jose Maria Córdova International Airport (SKRG)

Arrival

Time 2026-05-07 16:32
Airport El Dorado International Airport (SKBO)
Time Latitude Longitude Altitude Speed Heading
2026-05-07 15:02 6.17106 -75.42685 7016 ft 0 kts 279°
2026-05-07 15:50 6.17105 -75.42680 7020 ft 3 kts 279°
2026-05-07 15:50 6.17101 -75.42657 7020 ft 3 kts 279°
2026-05-07 15:50 6.17099 -75.42637 7016 ft 3 kts 256°
2026-05-07 15:51 6.17109 -75.42621 7020 ft 3 kts 201°
2026-05-07 15:51 6.17132 -75.42616 7017 ft 3 kts 181°
2026-05-07 15:51 6.17154 -75.42617 7016 ft 1 kts 177°
2026-05-07 15:51 6.17155 -75.42617 7016 ft 0 kts 177°
2026-05-07 15:55 6.17154 -75.42617 7016 ft 1 kts 177°
2026-05-07 15:56 6.17143 -75.42616 7016 ft 2 kts 178°
2026-05-07 15:56 6.17106 -75.42615 7017 ft 8 kts 175°
2026-05-07 15:56 6.17046 -75.42591 7017 ft 9 kts 147°
2026-05-07 15:56 6.16989 -75.42557 7018 ft 10 kts 149°
2026-05-07 15:57 6.16925 -75.42520 7017 ft 11 kts 150°
2026-05-07 15:57 6.16855 -75.42486 7016 ft 11 kts 170°
2026-05-07 15:57 6.16771 -75.42485 7012 ft 14 kts 180°
2026-05-07 15:57 6.16663 -75.42485 7007 ft 17 kts 180°
2026-05-07 15:58 6.16534 -75.42484 6994 ft 20 kts 180°
2026-05-07 15:58 6.16405 -75.42483 6990 ft 17 kts 179°
2026-05-07 15:58 6.16301 -75.42483 6990 ft 15 kts 179°
2026-05-07 15:58 6.16190 -75.42482 6987 ft 16 kts 179°
2026-05-07 15:59 6.16069 -75.42481 6984 ft 18 kts 180°
2026-05-07 15:59 6.15947 -75.42480 6982 ft 15 kts 179°
2026-05-07 15:59 6.15839 -75.42479 6981 ft 16 kts 180°
2026-05-07 15:59 6.15730 -75.42478 6980 ft 16 kts 179°
2026-05-07 16:00 6.15622 -75.42478 6980 ft 15 kts 179°
2026-05-07 16:00 6.15517 -75.42478 6979 ft 15 kts 180°
2026-05-07 16:00 6.15418 -75.42477 6979 ft 14 kts 180°
2026-05-07 16:00 6.15322 -75.42476 6978 ft 14 kts 179°
2026-05-07 16:01 6.15216 -75.42475 6978 ft 16 kts 179°
2026-05-07 16:01 6.15129 -75.42475 6978 ft 12 kts 180°
2026-05-07 16:01 6.15045 -75.42474 6977 ft 13 kts 179°
2026-05-07 16:01 6.14945 -75.42473 6977 ft 13 kts 180°
2026-05-07 16:02 6.14861 -75.42487 6977 ft 14 kts 166°
2026-05-07 16:02 6.14831 -75.42418 6977 ft 6 kts 88°
2026-05-07 16:02 6.14831 -75.42417 6977 ft 0 kts 88°
2026-05-07 16:03 6.14831 -75.42415 6977 ft 1 kts 88°
2026-05-07 16:03 6.14836 -75.42393 6977 ft 5 kts 66°
2026-05-07 16:03 6.14885 -75.42359 6977 ft 9 kts 29°
2026-05-07 16:03 6.14936 -75.42330 6977 ft 8 kts 31°
2026-05-07 16:04 6.14969 -75.42302 6977 ft 4 kts
2026-05-07 16:04 6.14986 -75.42303 6977 ft 0 kts 359°
2026-05-07 16:04 6.15134 -75.42304 6979 ft 59 kts
2026-05-07 16:05 6.15788 -75.42308 6980 ft 127 kts 359°
2026-05-07 16:05 6.16861 -75.42315 7018 ft 179 kts
2026-05-07 16:05 6.18158 -75.42320 7563 ft 189 kts
2026-05-07 16:05 6.19459 -75.42318 8354 ft 185 kts
2026-05-07 16:06 6.20766 -75.42301 8761 ft 188 kts
2026-05-07 16:06 6.21948 -75.41830 9211 ft 181 kts 44°
2026-05-07 16:06 6.22672 -75.40870 9652 ft 173 kts 74°
2026-05-07 16:06 6.22811 -75.39705 10119 ft 168 kts 102°
2026-05-07 16:07 6.22355 -75.38602 10297 ft 181 kts 127°
2026-05-07 16:07 6.21548 -75.37549 10430 ft 199 kts 127°
2026-05-07 16:07 6.20691 -75.36424 10807 ft 204 kts 126°
2026-05-07 16:07 6.19820 -75.35277 11251 ft 208 kts 126°
2026-05-07 16:08 6.18935 -75.34110 11739 ft 212 kts 126°
2026-05-07 16:08 6.18042 -75.32927 12235 ft 213 kts 125°
2026-05-07 16:08 6.17115 -75.31752 12674 ft 219 kts 130°
2026-05-07 16:08 6.15932 -75.30656 12805 ft 243 kts 140°
2026-05-07 16:09 6.14427 -75.29722 12910 ft 268 kts 152°
2026-05-07 16:09 6.12619 -75.28993 13085 ft 292 kts 156°
2026-05-07 16:09 6.10674 -75.28252 13511 ft 304 kts 156°
2026-05-07 16:09 6.08705 -75.27504 14139 ft 308 kts 156°
2026-05-07 16:10 6.06687 -75.26735 14715 ft 313 kts 155°
2026-05-07 16:10 6.04641 -75.25952 15274 ft 316 kts 156°
2026-05-07 16:10 6.02573 -75.25160 15881 ft 320 kts 156°
2026-05-07 16:10 6.00483 -75.24360 16498 ft 323 kts 156°
2026-05-07 16:11 5.98367 -75.23549 17007 ft 331 kts 156°
2026-05-07 16:11 5.96152 -75.22697 17103 ft 351 kts 156°
2026-05-07 16:11 5.93814 -75.21799 17209 ft 369 kts 156°
2026-05-07 16:11 5.91364 -75.20858 17303 ft 385 kts 156°
2026-05-07 16:12 5.88830 -75.19889 17685 ft 393 kts 157°
2026-05-07 16:12 5.86258 -75.18910 18224 ft 397 kts 157°
2026-05-07 16:12 5.83664 -75.17922 18699 ft 400 kts 157°
2026-05-07 16:12 5.81052 -75.16927 18940 ft 402 kts 157°
2026-05-07 16:13 5.78420 -75.15924 19009 ft 410 kts 157°
2026-05-07 16:13 5.75704 -75.14887 19020 ft 422 kts 157°
2026-05-07 16:13 5.72949 -75.13832 19026 ft 425 kts 157°
2026-05-07 16:13 5.70183 -75.12776 19023 ft 426 kts 157°
2026-05-07 16:14 5.67419 -75.11706 19024 ft 426 kts 156°
2026-05-07 16:14 5.64695 -75.10609 19024 ft 426 kts 156°
2026-05-07 16:14 5.61961 -75.09474 19025 ft 426 kts 155°
2026-05-07 16:14 5.59233 -75.08322 19032 ft 425 kts 155°
2026-05-07 16:15 5.57428 -75.07561 19029 ft 425 kts 155°
2026-05-07 16:15 5.54690 -75.06415 19001 ft 426 kts 156°
2026-05-07 16:15 5.51954 -75.05282 18983 ft 426 kts 156°
2026-05-07 16:15 5.49215 -75.04151 18981 ft 425 kts 156°
2026-05-07 16:16 5.46477 -75.03020 18979 ft 426 kts 156°
2026-05-07 16:16 5.43739 -75.01892 18988 ft 425 kts 156°
2026-05-07 16:16 5.41004 -75.00771 18987 ft 425 kts 156°
2026-05-07 16:16 5.38263 -74.99647 18975 ft 426 kts 156°
2026-05-07 16:17 5.35528 -74.98513 18970 ft 424 kts 155°
2026-05-07 16:17 5.32803 -74.97361 18965 ft 425 kts 155°
2026-05-07 16:17 5.30095 -74.96204 18852 ft 418 kts 155°
2026-05-07 16:17 5.27457 -74.95075 18620 ft 407 kts 155°
2026-05-07 16:18 5.24888 -74.93978 18407 ft 396 kts 155°
2026-05-07 16:18 5.22463 -74.92833 18197 ft 384 kts 146°
2026-05-07 16:18 5.20409 -74.91226 18064 ft 368 kts 133°
2026-05-07 16:18 5.18864 -74.89249 17931 ft 350 kts 119°
2026-05-07 16:19 5.17686 -74.87185 17779 ft 335 kts 118°
2026-05-07 16:19 5.16540 -74.85191 17643 ft 326 kts 118°
2026-05-07 16:19 5.15408 -74.83234 17514 ft 322 kts 119°
2026-05-07 16:19 5.14284 -74.81298 17394 ft 321 kts 118°
2026-05-07 16:20 5.13166 -74.79371 17263 ft 318 kts 118°
2026-05-07 16:20 5.12056 -74.77458 17143 ft 317 kts 118°
2026-05-07 16:20 5.10950 -74.75552 17020 ft 317 kts 118°
2026-05-07 16:20 5.09843 -74.73642 16898 ft 316 kts 118°
2026-05-07 16:21 5.08745 -74.71739 16768 ft 315 kts 118°
2026-05-07 16:21 5.07649 -74.69840 16650 ft 314 kts 118°
2026-05-07 16:21 5.06554 -74.67942 16526 ft 314 kts 119°
2026-05-07 16:21 5.05458 -74.66052 16406 ft 313 kts 118°
2026-05-07 16:22 5.04367 -74.64172 16286 ft 312 kts 118°
2026-05-07 16:22 5.03276 -74.62293 16163 ft 312 kts 119°
2026-05-07 16:22 5.02189 -74.60418 16053 ft 310 kts 119°
2026-05-07 16:22 5.01104 -74.58539 15926 ft 312 kts 119°
2026-05-07 16:23 5.00020 -74.56659 15636 ft 313 kts 119°
2026-05-07 16:23 4.98941 -74.54794 15278 ft 312 kts 119°
2026-05-07 16:23 4.97855 -74.52920 15012 ft 309 kts 119°
2026-05-07 16:23 4.96778 -74.51066 14672 ft 305 kts 119°
2026-05-07 16:24 4.95716 -74.49237 14105 ft 303 kts 119°
2026-05-07 16:24 4.94663 -74.47423 13476 ft 299 kts 120°
2026-05-07 16:24 4.93618 -74.45626 12841 ft 296 kts 120°
2026-05-07 16:24 4.92613 -74.43893 12630 ft 278 kts 120°
2026-05-07 16:25 4.91663 -74.42281 12619 ft 261 kts 124°
2026-05-07 16:25 4.90517 -74.40945 12657 ft 246 kts 137°
2026-05-07 16:25 4.89243 -74.39881 12675 ft 231 kts 139°
2026-05-07 16:25 4.88017 -74.38866 12694 ft 227 kts 138°
2026-05-07 16:26 4.86902 -74.37783 12726 ft 226 kts 130°
2026-05-07 16:26 4.85908 -74.36556 12694 ft 227 kts 127°
2026-05-07 16:26 4.84955 -74.35295 12531 ft 225 kts 126°
2026-05-07 16:26 4.84022 -74.34059 12295 ft 220 kts 125°
2026-05-07 16:27 4.83115 -74.32857 12021 ft 212 kts 126°
2026-05-07 16:27 4.82234 -74.31692 11773 ft 207 kts 126°
2026-05-07 16:27 4.81373 -74.30558 11534 ft 202 kts 127°
2026-05-07 16:27 4.80538 -74.29454 11304 ft 192 kts 127°
2026-05-07 16:28 4.79757 -74.28421 11090 ft 178 kts 126°
2026-05-07 16:28 4.79039 -74.27476 10912 ft 162 kts 126°
2026-05-07 16:28 4.78371 -74.26585 10728 ft 164 kts 127°
2026-05-07 16:28 4.77692 -74.25692 10541 ft 157 kts 123°
2026-05-07 16:29 4.77036 -74.24824 10359 ft 157 kts 126°
2026-05-07 16:29 4.76370 -74.23939 10169 ft 162 kts 126°
2026-05-07 16:29 4.75689 -74.23042 9939 ft 161 kts 128°
2026-05-07 16:29 4.75005 -74.22152 9750 ft 161 kts 127°
2026-05-07 16:30 4.74332 -74.21262 9598 ft 159 kts 127°
2026-05-07 16:30 4.73668 -74.20373 9417 ft 159 kts 125°
2026-05-07 16:30 4.72996 -74.19498 9176 ft 157 kts 129°
2026-05-07 16:30 4.72330 -74.18635 8937 ft 157 kts 124°
2026-05-07 16:31 4.71676 -74.17753 8622 ft 157 kts 124°
2026-05-07 16:31 4.71022 -74.16882 8398 ft 155 kts 125°
2026-05-07 16:31 4.70429 -74.16093 8365 ft 121 kts 128°
2026-05-07 16:31 4.70024 -74.15560 8364 ft 71 kts 128°
2026-05-07 16:32 4.69826 -74.15301 8365 ft 29 kts 127°
2026-05-07 16:32 4.69742 -74.15168 8365 ft 17 kts 107°
2026-05-07 16:32 4.69718 -74.15069 8365 ft 12 kts 103°
2026-05-07 16:32 4.69708 -74.15004 8364 ft 10 kts 97°
2026-05-07 16:33 4.69700 -74.14937 8364 ft 10 kts 96°
2026-05-07 16:33 4.69698 -74.14873 8365 ft 10 kts 81°
2026-05-07 16:33 4.69743 -74.14814 8365 ft 13 kts 36°
2026-05-07 16:33 4.69823 -74.14754 8366 ft 14 kts 37°
2026-05-07 16:34 4.69847 -74.14710 8366 ft 10 kts 104°
2026-05-07 16:34 4.69791 -74.14634 8366 ft 15 kts 128°
2026-05-07 16:34 4.69734 -74.14560 8366 ft 13 kts 127°
2026-05-07 16:34 4.69718 -74.14521 8366 ft 6 kts 71°
2026-05-07 16:35 4.69746 -74.14501 8366 ft 4 kts 37°
2026-05-07 16:35 4.69755 -74.14495 8366 ft 0 kts 36°